| time (UTC) | temp C | wind direction | speed KPH | gust KPH | rain 1hr cm | rain 24hr cm | rain mn cm | humidity % | barometer mb |
| 20260503213603 | 16 | 190 | 16.1 | 37.0 | 0.00 | 0.18 | 0.18 | 49 | 1009.0 |
| 20260503212703 | 16 | 192 | 14.5 | 29.0 | 0.00 | 0.18 | 0.18 | 49 | 1009.1 |
| 20260503211803 | 16 | 194 | 16.1 | 27.4 | 0.00 | 0.18 | 0.18 | 49 | 1009.2 |
| 20260503210903 | 17 | 198 | 17.7 | 37.0 | 0.00 | 0.18 | 0.18 | 48 | 1009.2 |
| 20260503210003 | 16 | 193 | 19.3 | 38.6 | 0.00 | 0.18 | 0.18 | 48 | 1009.3 |
| 20260503205403 | 16 | 200 | 17.7 | 38.6 | 0.00 | 0.18 | 0.18 | 47 | 1009.4 |
| 20260503204503 | 16 | 200 | 19.3 | 41.8 | 0.00 | 0.18 | 0.18 | 46 | 1009.6 |
| 20260503203603 | 16 | 193 | 17.7 | 45.1 | 0.00 | 0.18 | 0.18 | 46 | 1009.7 |
| 20260503202703 | 17 | 197 | 17.7 | 43.5 | 0.00 | 0.18 | 0.18 | 45 | 1009.7 |
| 20260503202017 | 17 | 192 | 8.0 | 43.5 | 0.00 | 0.18 | 0.18 | 47 | 1009.7 |
| 20260503200903 | 17 | 191 | 0.0 | 20.9 | 0.00 | 0.18 | 0.18 | 48 | 1010.0 |
| 20260503200003 | 16 | 184 | 4.8 | 33.8 | 0.00 | 0.18 | 0.18 | 48 | 1010.2 |
| 20260503195403 | 17 | 189 | 8.0 | 38.6 | 0.00 | 0.18 | 0.18 | 47 | 1010.2 |
| 20260503194503 | 16 | 187 | 3.2 | 38.6 | 0.00 | 0.18 | 0.18 | 49 | 1010.5 |
| 20260503193604 | 16 | 180 | 1.6 | 24.1 | 0.00 | 0.18 | 0.18 | 53 | 1010.6 |
| 20260503192703 | 15 | 178 | 1.6 | 19.3 | 0.00 | 0.18 | 0.18 | 54 | 1010.9 |
| 20260503191803 | 15 | 179 | 0.0 | 16.1 | 0.00 | 0.18 | 0.18 | 62 | 1011.0 |
| 20260503190903 | 13 | 174 | 0.0 | 9.7 | 0.00 | 0.18 | 0.18 | 71 | 1011.1 |
| 20260503190004 | 12 | 141 | 1.6 | 12.9 | 0.00 | 0.18 | 0.18 | 75 | 1011.3 |
| 20260503184503 | 11 | 121 | 3.2 | 9.7 | 0.05 | 0.18 | 0.18 | 83 | 1012.0 |
| 20260503183603 | 10 | 117 | 1.6 | 8.0 | 0.08 | 0.18 | 0.18 | 82 | 1012.6 |
| 20260503182703 | 10 | 136 | 1.6 | 4.8 | 0.08 | 0.18 | 0.18 | 81 | 1012.9 |
| 20260503181803 | 10 | 170 | 3.2 | 8.0 | 0.08 | 0.18 | 0.18 | 80 | 1013.4 |
| 20260503181117 | 10 | 180 | 3.2 | 8.0 | 0.10 | 0.18 | 0.18 | 79 | 1013.6 |
| 20260503180003 | 10 | 205 | 6.4 | 20.9 | 0.13 | 0.18 | 0.18 | 77 | 1014.2 |
| 20260503175403 | 10 | 209 | 3.2 | 20.9 | 0.10 | 0.15 | 0.15 | 76 | 1014.2 |
| 20260503174503 | 10 | 185 | 0.0 | 6.4 | 0.10 | 0.13 | 0.13 | 76 | 1014.0 |
| 20260503173603 | 10 | 0 | 0.0 | 0.0 | 0.08 | 0.10 | 0.10 | 76 | 1014.3 |
| 20260503172703 | 10 | 193 | 1.6 | 9.7 | 0.10 | 0.10 | 0.10 | 76 | 1014.5 |
| 20260503171803 | 10 | 195 | 3.2 | 12.9 | 0.10 | 0.10 | 0.10 | 76 | 1014.6 |
| 20260503170903 | 10 | 200 | 9.7 | 24.1 | 0.08 | 0.08 | 0.08 | 74 | 1014.7 |
| 20260503150903 | 13 | 0 | 0.0 | 0.0 | 0.00 | 0.00 | 0.00 | 55 | 1014.7 |
| 20260503140217 | 11 | 209 | 4.8 | 29.0 | 0.00 | 0.00 | 0.00 | 60 | 1015.5 |
| 20260503130903 | 10 | 180 | 0.0 | 6.4 | 0.00 | 0.00 | 0.00 | 62 | 1015.8 |
| 20260503090217 | 5 | 0 | 0.0 | 0.0 | 0.00 | 0.00 | 0.00 | 68 | 1015.8 |
| 20260503080903 | 5 | 0 | 0.0 | 0.0 | 0.00 | 0.00 | 0.00 | 67 | 1015.8 |
| 20260503072703 | 5 | 0 | 0.0 | 0.0 | 0.00 | 0.00 | 0.00 | 66 | 1016.0 |
| 20260503072018 | 5 | 0 | 0.0 | 0.0 | 0.00 | 0.00 | 0.00 | 66 | 1016.0 |
| 20260503070903 | 5 | 0 | 0.0 | 0.0 | 0.00 | 0.00 | 0.00 | 67 | 1016.0 |
| 20260503054503 | 5 | 199 | 0.0 | 6.4 | 0.00 | 0.00 | 0.00 | 68 | 1016.9 |
| 20260503053603 | 6 | 198 | 0.0 | 4.8 | 0.00 | 0.00 | 0.00 | 68 | 1016.9 |
| 20260503052703 | 6 | 0 | 0.0 | 1.6 | 0.00 | 0.00 | 0.00 | 67 | 1016.9 |
| 20260503051803 | 6 | 0 | 0.0 | 0.0 | 0.00 | 0.00 | 0.00 | 67 | 1017.0 |
| 20260503050903 | 6 | 0 | 0.0 | 0.0 | 0.00 | 0.00 | 0.00 | 67 | 1017.1 |
| 20260503050004 | 6 | 194 | 0.0 | 6.4 | 0.00 | 0.00 | 0.00 | 66 | 1017.1 |
| 20260503045617 | 6 | 194 | 0.0 | 6.4 | 0.00 | 0.00 | 0.00 | 66 | 1017.1 |
| 20260503044503 | 6 | 194 | 3.2 | 9.7 | 0.00 | 0.00 | 0.00 | 66 | 1017.1 |
| 20260503043603 | 6 | 196 | 3.2 | 6.4 | 0.00 | 0.00 | 0.00 | 66 | 1017.1 |
| 20260503042703 | 6 | 197 | 3.2 | 9.7 | 0.00 | 0.00 | 0.00 | 65 | 1017.1 |
| 20260503042019 | 6 | 194 | 3.2 | 9.7 | 0.00 | 0.00 | 0.00 | 65 | 1017.1 |
| 20260503040903 | 6 | 194 | 0.0 | 6.4 | 0.00 | 0.00 | 0.00 | 65 | 1017.2 |
| 20260503040003 | 6 | 203 | 0.0 | 1.6 | 0.00 | 0.00 | 0.00 | 65 | 1017.2 |
| 20260503035403 | 6 | 196 | 0.0 | 1.6 | 0.00 | 0.00 | 0.00 | 65 | 1017.2 |
| 20260503034718 | 6 | 0 | 0.0 | 1.6 | 0.00 | 0.00 | 0.00 | 66 | 1017.2 |
| 20260503033603 | 6 | 204 | 0.0 | 4.8 | 0.00 | 0.00 | 0.00 | 66 | 1017.2 |
| 20260503032703 | 5 | 264 | 0.0 | 3.2 | 0.00 | 0.00 | 0.00 | 68 | 1017.2 |
| 20260503031803 | 5 | 0 | 0.0 | 1.6 | 0.00 | 0.00 | 0.00 | 70 | 1017.3 |
| 20260503030903 | 6 | 0 | 0.0 | 1.6 | 0.00 | 0.00 | 0.00 | 68 | 1017.4 |
| 20260503030217 | 6 | 266 | 0.0 | 1.6 | 0.00 | 0.00 | 0.00 | 66 | 1017.3 |
| 20260503025403 | 6 | 265 | 0.0 | 1.6 | 0.00 | 0.00 | 0.00 | 66 | 1017.4 |
| 20260503024503 | 6 | 0 | 0.0 | 1.6 | 0.00 | 0.00 | 0.00 | 65 | 1017.4 |
| 20260503023603 | 6 | 0 | 0.0 | 0.0 | 0.00 | 0.00 | 0.00 | 64 | 1017.4 |
| 20260503022703 | 6 | 266 | 0.0 | 1.6 | 0.00 | 0.00 | 0.00 | 63 | 1017.3 |
| 20260503021803 | 6 | 266 | 0.0 | 1.6 | 0.00 | 0.00 | 0.00 | 62 | 1017.3 |
| 20260503020903 | 6 | 266 | 0.0 | 1.6 | 0.00 | 0.00 | 0.00 | 63 | 1017.3 |
| 20260503020003 | 6 | 266 | 0.0 | 1.6 | 0.00 | 0.00 | 0.00 | 63 | 1017.2 |
| 20260503015403 | 6 | 0 | 0.0 | 1.6 | 0.00 | 0.00 | 0.00 | 63 | 1017.2 |
| 20260503014503 | 7 | 0 | 0.0 | 1.6 | 0.00 | 0.00 | 0.00 | 61 | 1017.2 |
| 20260503013603 | 7 | 265 | 0.0 | 1.6 | 0.00 | 0.00 | 0.00 | 61 | 1017.1 |
| 20260503012918 | 7 | 0 | 0.0 | 0.0 | 0.00 | 0.00 | 0.00 | 61 | 1017.1 |
| 20260503011803 | 7 | 0 | 0.0 | 0.0 | 0.00 | 0.00 | 0.00 | 59 | 1017.0 |
| 20260503010903 | 8 | 0 | 0.0 | 1.6 | 0.00 | 0.00 | 0.00 | 54 | 1017.0 |
| 20260503010003 | 9 | 0 | 0.0 | 1.6 | 0.00 | 0.00 | 0.00 | 52 | 1017.0 |
| 20260503005618 | 10 | 0 | 0.0 | 1.6 | 0.00 | 0.00 | 0.00 | 52 | 1017.0 |
| 20260503004503 | 10 | 265 | 0.0 | 1.6 | 0.00 | 0.00 | 0.00 | 49 | 1017.1 |
| 20260503003603 | 10 | 266 | 0.0 | 3.2 | 0.00 | 0.00 | 0.00 | 47 | 1017.1 |
| 20260503002703 | 11 | 258 | 1.6 | 3.2 | 0.00 | 0.00 | 0.00 | 46 | 1017.1 |
| 20260503002017 | 11 | 260 | 1.6 | 6.4 | 0.00 | 0.00 | 0.00 | 45 | 1017.1 |
| 20260503000903 | 11 | 249 | 4.8 | 11.3 | 0.00 | 0.00 | 0.00 | 42 | 1017.1 |
| 20260503000003 | 12 | 246 | 4.8 | 17.7 | 0.00 | 0.00 | 0.00 | 41 | 1017.1 |
| 20260502235403 | 12 | 267 | 1.6 | 4.8 | 0.00 | 0.00 | 0.00 | 40 | 1017.0 |
| 20260502234503 | 12 | 301 | 3.2 | 9.7 | 0.00 | 0.00 | 0.00 | 41 | 1017.1 |
| 20260502233603 | 12 | 272 | 3.2 | 9.7 | 0.00 | 0.00 | 0.00 | 40 | 1017.1 |
| 20260502232703 | 13 | 291 | 1.6 | 11.3 | 0.00 | 0.00 | 0.00 | 39 | 1017.2 |
| 20260502231804 | 13 | 285 | 1.6 | 8.0 | 0.00 | 0.00 | 0.00 | 41 | 1017.3 |
| 20260502230903 | 12 | 271 | 3.2 | 11.3 | 0.00 | 0.00 | 0.00 | 39 | 1017.3 |
| 20260502230003 | 12 | 268 | 3.2 | 8.0 | 0.00 | 0.00 | 0.00 | 38 | 1017.2 |
| 20260502225403 | 12 | 270 | 3.2 | 8.0 | 0.00 | 0.00 | 0.00 | 41 | 1017.3 |
| 20260502224503 | 12 | 265 | 4.8 | 11.3 | 0.00 | 0.00 | 0.00 | 39 | 1017.3 |
| 20260502223603 | 12 | 271 | 3.2 | 14.5 | 0.00 | 0.00 | 0.00 | 44 | 1017.4 |
| 20260502222703 | 12 | 267 | 6.4 | 16.1 | 0.00 | 0.00 | 0.00 | 39 | 1017.4 |
| 20260502221803 | 13 | 268 | 8.0 | 16.1 | 0.00 | 0.00 | 0.00 | 38 | 1017.4 |
| 20260502220903 | 12 | 267 | 3.2 | 16.1 | 0.00 | 0.00 | 0.00 | 38 | 1017.4 |
| 20260502220003 | 12 | 320 | 4.8 | 11.3 | 0.00 | 0.00 | 0.00 | 37 | 1017.3 |
| 20260502215403 | 12 | 300 | 6.4 | 17.7 | 0.00 | 0.00 | 0.00 | 38 | 1017.4 |
| 20260502214718 | 13 | 289 | 4.8 | 17.7 | 0.00 | 0.00 | 0.00 | 38 | 1017.3 |